OIGG

Details ICAO OIGG (RAS)
Name RASHT
Region Iran
Timezone Asia/Tehran (UTC+4.5)
Plans Departing 23
Arriving 23
Stats Elevation -40 ft / -12 m (AMSL)
Location 37.325546° 49.605571°
Runways 1
Magnetic Variation 5.310° E
Sunrise 2018-05-22 01:29:18 UTC / 2018-05-22 05:59:18 Local
Sunset 2018-05-22 15:50:01 UTC / 2018-05-22 20:20:01 Local
Advertisement - Login to hide

Runways

ID Width Length Bearing (true) Bearing (mag) Surface Threshold Offset Overrun Length
09 148 ft / 45 m 9,552 ft / 2,911 m 93.84° 88.53° Asphalt 1,973 ft / 601 m 492 ft / 150 m
27 148 ft / 45 m 9,552 ft / 2,911 m 273.86° 268.55° Asphalt 0 ft / 0 m 0 ft / 0 m

Approach Navaids

Runway Type Ident Frequency Range Bearing (true) Bearing (mag) Slope Elevation
27 Localiser IRST 109.90 MHz 18 nm / 33 km 273.83° 268.52° - -40 ft / -12 m (AMSL)
27 Glidescope IRST 109.90 MHz 10 nm / 19 km 273.85° 268.54° 3.00° -40 ft / -12 m (AMSL)
27 DME IRST 109.90 MHz 18 nm / 33 km - - - -40 ft / -12 m (AMSL)

Map

Weather


0- 5 10 15 20 25 30 35+ Temperature / ° C

Clouds and Precipitation
Forecast for 2018-05-21 18:00 UTC. Updated 4 hours ago

Ground ~20,000 ft ~40,000 ft Winds

METAR

OIGG 212000Z 00000KT CAVOK 20/16 Q1014

TAF

Not found

Frequencies

Recorded 126.20 MHz INFO
Tower 122.70 MHz TWR
Tower 121.90 MHz TWR
Warning: Do not use this data for real-world aviation or navigation. No guarantee of current accuracy is given.